Weather History for Marshalltown, IA

Change the Weather History Date:

Thursday, October 6, 2011

  Actual Average Record
Temperature  
Mean Temperature 65 °F 54 °F  
Max Temperature 81 °F 66 °F 89 °F (1997)
Min Temperature 50 °F 42 °F 24 °F (2012)
Degree Days  
Heating Degree Days 0 12  
Month to date heating degree days 65  
Since 1 July heating degree days 225  
Cooling Degree Days 0 1  
Month to date cooling degree days 6  
Year to date cooling degree days 724  
Growing Degree Days 15 (Base 50)    
Moisture  
Dew Point 46 °F    
Average Humidity 53    
Maximum Humidity 80    
Minimum Humidity 27    
Precipitation  
Precipitation 0.00 in 0.06 in 0.02 in (2013)
Month to date precipitation 0.40  
Sea Level Pressure  
Sea Level Pressure 30.08 in    
Wind  
Wind Speed 10 mph (SE)    
Max Wind Speed 21 mph    
Max Gust Speed 26 mph    
Visibility 10 miles    
Events      
T = Trace of Precipitation, MM = Missing Value Source: NWS Daily Summary

Daily Weather History Graph

Daily Weather History Graph

Search for Another Location

Airport:

Trip Planner

Search our weather history database for the weather conditions in past years. The results will help you decide how hot, cold, wet, or windy it might be!

Date:

Astronomy

Oct. 06, 2011 Rise Set
Actual Time 7:13 AM CDT 6:45 PM CDT
Civil Twilight 6:45 AM CDT 7:13 PM CDT
Nautical Twilight 6:13 AM CDT 7:45 PM CDT
Astronomical Twilight 5:40 AM CDT 8:17 PM CDT
Moon 4:03 PM CDT (10/6) 1:57 AM CDT (10/6)
Length of Visible Light 12h 27m
Length of Day
11h 31m
Waxing Gibbous, 75% of the Moon is Illuminated
Oct 6
Waxing Gibbous
Oct 11
Full
Oct 19
Last Quarter
Oct 26
New
Nov 2
First Quarter

Hourly Weather History & Observations

Time (CDT) Temp. Dew Point Humidity Pressure Visibility Wind Dir Wind Speed Gust Speed Precip Events Conditions
12:53 AM 54.0 °F 43.0 °F 66% 30.09 in 10.0 mi SE 6.9 mph - N/A   Clear
1:53 AM 53.1 °F 43.0 °F 69% 30.10 in 10.0 mi SE 6.9 mph - N/A   Clear
2:53 AM 53.1 °F 43.0 °F 69% 30.10 in 10.0 mi SE 8.1 mph - N/A   Clear
3:53 AM 51.1 °F 43.0 °F 74% 30.10 in 10.0 mi SE 6.9 mph - N/A   Clear
4:53 AM 50.0 °F 43.0 °F 77% 30.11 in 10.0 mi SE 6.9 mph - N/A   Clear
5:53 AM 50.0 °F 44.1 °F 80% 30.12 in 10.0 mi SE 9.2 mph - N/A   Clear
6:53 AM 51.1 °F 44.1 °F 77% 30.12 in 10.0 mi SE 9.2 mph - N/A   Clear
7:53 AM 52.0 °F 45.0 °F 77% 30.13 in 10.0 mi SE 8.1 mph - N/A   Clear
8:53 AM 57.0 °F 46.9 °F 69% 30.14 in 10.0 mi SE 9.2 mph - N/A   Clear
9:53 AM 62.1 °F 48.9 °F 62% 30.14 in 10.0 mi SSE 8.1 mph - N/A   Clear
10:53 AM 70.0 °F 48.9 °F 47% 30.12 in 10.0 mi SSE 9.2 mph - N/A   Clear
11:53 AM 75.0 °F 46.0 °F 36% 30.11 in 10.0 mi SSE 12.7 mph - N/A   Clear
12:53 PM 78.1 °F 46.0 °F 32% 30.09 in 10.0 mi South 20.7 mph 25.3 mph N/A   Clear
1:53 PM 79.0 °F 44.1 °F 29% 30.07 in 10.0 mi South 18.4 mph 25.3 mph N/A   Clear
2:53 PM 80.1 °F 43.0 °F 27% 30.06 in 10.0 mi SSE 16.1 mph - N/A   Clear
3:53 PM 79.0 °F 42.1 °F 27% 30.04 in 10.0 mi SE 17.3 mph 26.5 mph N/A   Clear
4:53 PM 78.1 °F 45.0 °F 31% 30.03 in 10.0 mi SSE 17.3 mph 24.2 mph N/A   Clear
5:53 PM 78.1 °F 46.0 °F 32% 30.02 in 10.0 mi SE 16.1 mph - N/A   Clear
6:53 PM 73.9 °F 46.9 °F 38% 30.02 in 10.0 mi SE 11.5 mph - N/A   Clear
7:53 PM 72.0 °F 46.9 °F 41% 30.03 in 10.0 mi SE 11.5 mph - N/A   Clear
8:53 PM 70.0 °F 46.9 °F 44% 30.03 in 10.0 mi SE 15.0 mph - N/A   Clear
9:53 PM 68.0 °F 48.0 °F 49% 30.04 in 10.0 mi SE 15.0 mph 23.0 mph N/A   Clear
10:53 PM 66.0 °F 48.9 °F 54% 30.04 in 10.0 mi SSE 11.5 mph - N/A   Clear
11:53 PM 64.0 °F 50.0 °F 60% 30.04 in 10.0 mi SE 11.5 mph - N/A   Clear